Keokuk, IA

7:46 AM CST on November 23, 2017 (GMT -0600)
Keokuk Municipal

Weather History for KEOK - May, 2013

Change the Weather History Date:

Tuesday, May 28, 2013

  Actual Average Record
Temperature  
Mean Temperature 72 °F -  
Max Temperature 80 °F 76 °F 93 °F (2006)
Min Temperature 64 °F 57 °F 42 °F (1992)
Cooling Degree Days 7    
Growing Degree Days 22 (Base 50)    
Moisture  
Dew Point 63 °F    
Average Humidity 70    
Maximum Humidity 78    
Minimum Humidity 60    
Precipitation  
Precipitation 0.85 in - - ()
Sea Level Pressure  
Sea Level Pressure 29.78 in    
Wind  
Wind Speed 12 mph (SSW)    
Max Wind Speed 22 mph    
Max Gust Speed 36 mph    
Visibility 10 miles    
Events Rain    
Averages and records for this station are not official NWS values.
T = Trace of Precipitation, MM = Missing Value Source: NWS Daily Summary

Daily Weather History Graph

Daily Weather History Graph

Search for Another Location

Airport or City:

Trip Planner

Search our weather history database for the weather conditions in past years. The results will help you decide how hot, cold, wet, or windy it might be!

Date:

Astronomy

May. 28, 2013 Rise Set
Actual Time 5:39 AM CDT 8:27 PM CDT
Civil Twilight 5:07 AM CDT 8:59 PM CDT
Nautical Twilight 4:26 AM CDT 9:39 PM CDT
Astronomical Twilight 3:40 AM CDT 10:26 PM CDT
Moon 11:50 PM CDT (5/28) 9:28 AM CDT (5/28)
Length of Visible Light 15h 52m
Length of Day
14h 47m
Waning Gibbous, 82% of the Moon is Illuminated
May 28
Waning Gibbous
May 31
Last Quarter
Jun 8
New
Jun 16
First Quarter
Jun 23
Full

Hourly Weather History & Observations

Time (CDT) Temp. Heat Index Dew Point Humidity Pressure Visibility Wind Dir Wind Speed Gust Speed Precip Events Conditions
12:15 AM 73.4 °F - 60.8 °F 65% 29.78 in 10.0 mi South 12.7 mph 20.7 mph N/A   Overcast
12:35 AM 73.4 °F - 62.6 °F 69% 29.77 in 10.0 mi South 15.0 mph 20.7 mph N/A   Overcast
12:55 AM 73.4 °F - 62.6 °F 69% 29.77 in 10.0 mi South 16.1 mph - N/A   Mostly Cloudy
1:15 AM 73.4 °F - 62.6 °F 69% 29.76 in 10.0 mi South 11.5 mph 18.4 mph N/A   Scattered Clouds
1:35 AM 73.4 °F - 62.6 °F 69% 29.75 in 10.0 mi SSW 13.8 mph 19.6 mph N/A   Scattered Clouds
1:55 AM 73.4 °F - 62.6 °F 69% 29.75 in 10.0 mi SSW 17.3 mph 24.2 mph N/A   Scattered Clouds
2:15 AM 73.4 °F - 62.6 °F 69% 29.74 in 10.0 mi SSW 13.8 mph 18.4 mph N/A   Clear
2:35 AM 73.4 °F - 60.8 °F 65% 29.74 in 10.0 mi SSW 12.7 mph 19.6 mph N/A   Clear
2:55 AM 73.4 °F - 60.8 °F 65% 29.73 in 10.0 mi SSW 11.5 mph - N/A   Clear
3:15 AM 73.4 °F - 62.6 °F 69% 29.73 in 10.0 mi SSW 11.5 mph 18.4 mph N/A Rain Light Rain
3:35 AM 71.6 °F - 62.6 °F 73% 29.75 in 10.0 mi SSW 10.4 mph - N/A Rain Light Rain
3:55 AM 71.6 °F - 62.6 °F 73% 29.78 in 7.0 mi SW 11.5 mph 20.7 mph 0.09 in Rain Heavy Rain
4:15 AM 68.0 °F - 60.8 °F 78% 29.75 in 10.0 mi SSW 9.2 mph 18.4 mph 0.05 in Rain Rain
4:35 AM 66.2 °F - 59.0 °F 78% 29.77 in 10.0 mi South 15.0 mph 19.6 mph 0.12 in Rain Rain
4:55 AM 66.2 °F - 57.2 °F 73% 29.76 in 10.0 mi South 16.1 mph 25.3 mph 0.17 in Rain Rain
7:15 AM 66.2 °F - 57.2 °F 73% 29.76 in 10.0 mi South 6.9 mph - N/A   Unknown
7:35 AM 66.2 °F - 57.2 °F 73% 29.77 in 10.0 mi South 5.8 mph - N/A Rain Light Rain
7:55 AM 68.0 °F - 60.8 °F 78% 29.77 in 10.0 mi South 8.1 mph - N/A   Light Drizzle
8:15 AM 68.0 °F - 60.8 °F 78% 29.76 in 10.0 mi SSE 9.2 mph - N/A   Overcast
8:35 AM 69.8 °F - 60.8 °F 73% 29.76 in 10.0 mi SSE 9.2 mph - N/A   Overcast
8:55 AM 69.8 °F - 60.8 °F 73% 29.76 in 10.0 mi SSE 9.2 mph - N/A   Overcast
9:15 AM 71.6 °F - 62.6 °F 73% 29.76 in 10.0 mi SSE 8.1 mph - N/A   Mostly Cloudy
9:35 AM 71.6 °F - 64.4 °F 78% 29.75 in 10.0 mi South 16.1 mph 20.7 mph 0.01 in   Mostly Cloudy
9:55 AM 75.2 °F - 64.4 °F 69% 29.74 in 10.0 mi South 16.1 mph 19.6 mph 0.01 in   Scattered Clouds
10:15 AM 75.2 °F - 64.4 °F 69% 29.75 in 10.0 mi South 15.0 mph 21.9 mph N/A   Scattered Clouds
10:35 AM 77.0 °F - 66.2 °F 69% 29.74 in 10.0 mi SSW 16.1 mph 23.0 mph N/A   Scattered Clouds
10:55 AM 78.8 °F - 66.2 °F 65% 29.75 in 10.0 mi SSW 12.7 mph 24.2 mph N/A   Scattered Clouds
11:15 AM 77.0 °F - 66.2 °F 69% 29.75 in 10.0 mi South 13.8 mph 19.6 mph N/A   Mostly Cloudy
11:35 AM 77.0 °F - 66.2 °F 69% 29.75 in 10.0 mi South 12.7 mph 18.4 mph N/A   Overcast
11:55 AM 77.0 °F - 66.2 °F 69% 29.76 in 10.0 mi South 10.4 mph - N/A   Overcast
12:15 PM 78.8 °F - 66.2 °F 65% 29.75 in 10.0 mi SSW 11.5 mph 17.3 mph N/A   Overcast
12:35 PM 78.8 °F - 66.2 °F 65% 29.74 in 10.0 mi SSW 12.7 mph 18.4 mph N/A   Overcast
12:55 PM 80.6 °F 82.7 °F 66.2 °F 61% 29.74 in 10.0 mi SSW 18.4 mph 21.9 mph N/A   Overcast
1:15 PM 78.8 °F - 66.2 °F 65% 29.75 in 10.0 mi SSW 16.1 mph 21.9 mph N/A   Overcast
1:35 PM 78.8 °F - 66.2 °F 65% 29.75 in 10.0 mi SW 17.3 mph 24.2 mph N/A   Overcast
1:55 PM 78.8 °F - 66.2 °F 65% 29.76 in 10.0 mi SSW 15.0 mph 21.9 mph N/A   Overcast
2:15 PM 78.8 °F - 66.2 °F 65% 29.77 in 10.0 mi SSW 15.0 mph 23.0 mph N/A   Overcast
2:35 PM 77.0 °F - 66.2 °F 69% 29.77 in 10.0 mi SSW 12.7 mph 16.1 mph N/A   Overcast
2:55 PM 77.0 °F - 66.2 °F 69% 29.77 in 10.0 mi SW 11.5 mph - N/A   Overcast
3:15 PM 78.8 °F - 66.2 °F 65% 29.78 in 10.0 mi SW 15.0 mph 21.9 mph N/A   Overcast
3:35 PM 78.8 °F - 66.2 °F 65% 29.76 in 10.0 mi SSW 9.2 mph 18.4 mph N/A   Overcast
3:55 PM 78.8 °F - 66.2 °F 65% 29.76 in 10.0 mi SSW 9.2 mph - N/A   Overcast
4:15 PM 78.8 °F - 66.2 °F 65% 29.77 in 10.0 mi SSW 9.2 mph - N/A   Mostly Cloudy
4:35 PM 77.0 °F - 66.2 °F 69% 29.78 in 10.0 mi SSW 8.1 mph - N/A   Mostly Cloudy
4:55 PM 75.2 °F - 66.2 °F 73% 29.77 in 10.0 mi South 6.9 mph - N/A   Overcast
5:15 PM 75.2 °F - 66.2 °F 73% 29.77 in 7.0 mi South 8.1 mph - N/A Rain Light Rain
5:35 PM 75.2 °F - 66.2 °F 73% 29.75 in 10.0 mi South 9.2 mph - N/A   Overcast
5:55 PM 75.2 °F - 66.2 °F 73% 29.76 in 10.0 mi SSW 4.6 mph - N/A   Mostly Cloudy
6:15 PM 78.8 °F - 68.0 °F 69% 29.76 in 10.0 mi SSW 8.1 mph - N/A   Scattered Clouds
6:35 PM 77.0 °F - 66.2 °F 69% 29.76 in 10.0 mi SW 10.4 mph - N/A   Clear
6:55 PM 77.0 °F - 66.2 °F 69% 29.76 in 10.0 mi SW 11.5 mph - N/A   Clear
7:15 PM 75.2 °F - 64.4 °F 69% 29.72 in 10.0 mi SW 10.4 mph - N/A   Clear
7:35 PM 75.2 °F - 64.4 °F 69% 29.73 in 10.0 mi SW 9.2 mph - N/A   Clear
7:55 PM 75.2 °F - 64.4 °F 69% 29.73 in 10.0 mi West 9.2 mph - N/A   Scattered Clouds
8:15 PM 75.2 °F - 64.4 °F 69% 29.82 in 10.0 mi West 6.9 mph - N/A   Scattered Clouds
8:35 PM 75.2 °F - 64.4 °F 69% 29.86 in 10.0 mi NW 21.9 mph 35.7 mph N/A   Overcast
8:55 PM 71.6 °F - 57.2 °F 60% 29.87 in 10.0 mi WNW 8.1 mph - N/A   Overcast
9:15 PM 66.2 °F - 57.2 °F 73% 29.87 in 5.0 mi NW 10.4 mph 16.1 mph 0.07 in Rain Heavy Rain
9:35 PM 66.2 °F - 57.2 °F 73% 29.87 in 10.0 mi Calm Calm - 0.07 in Rain Light Rain
9:55 PM 66.2 °F - 57.2 °F 73% 29.94 in 10.0 mi WNW 19.6 mph 29.9 mph 0.14 in Rain Rain
10:15 PM 64.4 °F - 55.4 °F 73% 29.92 in 10.0 mi NW 5.8 mph 16.1 mph 0.08 in Rain Rain
10:35 PM 64.4 °F - 55.4 °F 73% 29.89 in 10.0 mi ENE 3.5 mph - 0.09 in Rain Light Rain
10:55 PM 64.4 °F - 55.4 °F 73% 29.88 in 10.0 mi ENE 3.5 mph - 0.10 in Rain Rain
11:15 PM 64.4 °F - 55.4 °F 73% 29.89 in 5.0 mi Calm Calm - 0.05 in Rain Heavy Rain
11:35 PM 64.4 °F - 55.4 °F 73% 29.88 in 10.0 mi SE 6.9 mph - 0.24 in Rain Rain
11:55 PM 64.4 °F - 55.4 °F 73% 29.88 in 7.0 mi SE 9.2 mph - 0.34 in Rain Heavy Rain